Change the Weather History Date:

Saturday, March 9, 2013

  Actual Average Record
Temperature  
Mean Temperature 46 °F -  
Max Temperature 51 °F 73 °F 93 °F (1989)
Min Temperature 41 °F 45 °F 29 °F (1964)
Degree Days  
Heating Degree Days 19    
Moisture  
Dew Point 35 °F    
Average Humidity 62    
Maximum Humidity 81    
Minimum Humidity 50    
Precipitation  
Precipitation 0.01 in - - ()
Sea Level Pressure  
Sea Level Pressure 30.02 in    
Wind  
Wind Speed 8 mph (NW)    
Max Wind Speed 15 mph    
Max Gust Speed 20 mph    
Visibility 10 miles    
Events Rain    
Averages and records for this station are not official NWS values.
T = Trace of Precipitation, MM = Missing Value Source: NWS Daily Summary

Daily Weather History Graph

Daily Weather History Graph

Search for Another Location

Airport or City:

Trip Planner

Search our weather history database for the weather conditions in past years. The results will help you decide how hot, cold, wet, or windy it might be!

Date:

Astronomy

Mar. 09, 2013 Rise Set
Actual Time 6:40 AM MST 6:27 PM MST
Civil Twilight 6:16 AM MST 6:51 PM MST
Nautical Twilight 5:48 AM MST 7:20 PM MST
Astronomical Twilight 5:19 AM MST 7:48 PM MST
Moon 5:01 AM MST (3/9) 4:37 PM MST (3/9)
Length of Visible Light 12h 35m
Length of Day
11h 46m
Waning Crescent, 5% of the Moon is Illuminated
Mar 9
Waning Crescent
Mar 11
New
Mar 19
First Quarter
Mar 27
Full
Apr 2
Last Quarter

Hourly Weather History & Observations

Time (MST) Temp. Windchill Dew Point Humidity Pressure Visibility Wind Dir Wind Speed Gust Speed Precip Events Conditions
12:58 AM 46.0 °F 41.0 °F 31.5 °F 57% 29.95 in 10.0 mi WSW 10.4 mph - N/A   Scattered Clouds
1:58 AM 46.9 °F - 31.3 °F 55% 29.94 in 10.0 mi SW 9.2 mph - N/A   Mostly Cloudy
2:58 AM 45.9 °F 39.7 °F 32.5 °F 60% 29.94 in 10.0 mi SSW 13.8 mph - N/A   Mostly Cloudy
3:58 AM 45.3 °F 39.7 °F 31.8 °F 59% 29.94 in 10.0 mi SSW 11.5 mph - N/A   Scattered Clouds
4:58 AM 43.7 °F - 32.4 °F 64% 29.95 in 10.0 mi Calm Calm - N/A   Partly Cloudy
5:56 AM 44.6 °F 42.2 °F 35.6 °F 71% 30.00 in 10.0 mi NNW 4.6 mph - N/A   Light Drizzle
5:59 AM 44.6 °F 41.4 °F 35.6 °F 71% 29.96 in 10.0 mi NW 5.8 mph - N/A   Light Drizzle
6:08 AM 44.6 °F 40.2 °F 35.6 °F 71% 30.01 in 10.0 mi NW 8.1 mph - N/A   Scattered Clouds
6:58 AM 41.9 °F - 36.5 °F 81% 29.98 in 10.0 mi NNW 2.3 mph - 0.00 in   Scattered Clouds
7:58 AM 43.3 °F - 36.7 °F 77% 30.01 in 10.0 mi NE 2.3 mph - N/A   Mostly Cloudy
8:58 AM 46.0 °F 43.9 °F 35.1 °F 66% 30.01 in 10.0 mi South 4.6 mph - N/A   Scattered Clouds
9:58 AM 48.2 °F - 32.7 °F 55% 30.02 in 10.0 mi West 9.2 mph - N/A   Mostly Cloudy
10:30 AM 48.2 °F - 32.0 °F 54% 30.05 in 10.0 mi WSW 13.8 mph - N/A   Scattered Clouds
10:46 AM 48.2 °F - 32.0 °F 54% 30.06 in 10.0 mi WSW 15.0 mph - N/A   Light Drizzle
10:58 AM 47.3 °F - 35.1 °F 62% 30.04 in 10.0 mi West 8.1 mph - 0.00 in   Light Drizzle
11:02 AM 48.2 °F - 32.0 °F 54% 30.06 in 10.0 mi West 8.1 mph - N/A   Clear
11:16 AM 48.2 °F - 33.8 °F 58% 30.06 in 10.0 mi SSW 6.9 mph - N/A Rain Light Rain
11:29 AM 48.2 °F - 35.6 °F 62% 30.05 in 10.0 mi Variable 3.5 mph - N/A   Scattered Clouds
11:43 AM 50.0 °F - 33.8 °F 54% 30.05 in 10.0 mi North 4.6 mph - N/A   Light Drizzle
11:58 AM 48.6 °F - 36.1 °F 62% 30.02 in 10.0 mi West 12.7 mph - 0.00 in Rain Light Rain
12:07 PM 48.2 °F - 35.6 °F 62% 30.05 in 10.0 mi West 15.0 mph 19.6 mph N/A   Scattered Clouds
12:44 PM 50.0 °F - 32.0 °F 50% 30.04 in 10.0 mi WNW 11.5 mph - N/A Rain Light Rain
12:56 PM 50.0 °F - 32.0 °F 50% 30.04 in 10.0 mi NNW 6.9 mph - N/A   Overcast
12:59 PM 50.0 °F - 32.0 °F 50% 30.01 in 10.0 mi NNW 11.5 mph - 0.00 in   Overcast
1:22 PM 50.0 °F - 32.0 °F 50% 30.04 in 10.0 mi NW 11.5 mph - N/A Rain Light Rain
1:58 PM 46.4 °F 42.4 °F 41.0 °F 81% 30.01 in 10.0 mi North 8.1 mph - 0.00 in Rain Light Rain
2:03 PM 46.4 °F 42.9 °F 39.2 °F 76% 30.03 in 10.0 mi NNE 6.9 mph - N/A Rain Light Rain
2:07 PM 46.4 °F 42.9 °F 39.2 °F 76% 30.03 in 10.0 mi North 6.9 mph - N/A   Mostly Cloudy
2:58 PM 51.3 °F - 36.9 °F 58% 30.00 in 10.0 mi Variable 6.9 mph - 0.00 in   Overcast
3:14 PM 50.0 °F - 35.6 °F 58% 30.03 in 10.0 mi WNW 5.8 mph - N/A   Light Drizzle
3:43 PM 50.0 °F - 35.6 °F 58% 30.03 in 10.0 mi WNW 4.6 mph - N/A   Mostly Cloudy
3:58 PM 49.6 °F - 35.6 °F 59% 30.00 in 10.0 mi Variable 3.5 mph - 0.01 in   Overcast
4:04 PM 50.0 °F - 35.6 °F 58% 30.03 in 10.0 mi North 4.6 mph - N/A Rain Light Rain
4:27 PM 50.0 °F - 39.2 °F 66% 30.03 in 10.0 mi NNW 8.1 mph - N/A   Mostly Cloudy
4:58 PM 50.0 °F - 36.9 °F 61% 30.01 in 10.0 mi NNW 6.9 mph - 0.00 in   Mostly Cloudy
5:58 PM 50.0 °F - 36.7 °F 60% 30.02 in 10.0 mi North 9.2 mph - N/A   Overcast
6:02 PM 50.0 °F - 35.6 °F 58% 30.05 in 10.0 mi NNW 9.2 mph - N/A   Light Drizzle
6:13 PM 50.0 °F - 37.4 °F 62% 30.05 in 10.0 mi NNW 9.2 mph - N/A   Mostly Cloudy
6:58 PM 49.3 °F - 36.9 °F 62% 30.04 in 10.0 mi North 4.6 mph - 0.00 in   Overcast
7:58 PM 49.5 °F - 36.1 °F 60% 30.05 in 10.0 mi North 4.6 mph - N/A   Overcast
8:58 PM 48.9 °F - 36.1 °F 61% 30.05 in 10.0 mi NW 3.5 mph - N/A   Overcast
9:58 PM 46.6 °F - 35.8 °F 66% 30.05 in 10.0 mi NNW 4.6 mph - N/A   Clear
10:58 PM 44.6 °F 43.1 °F 35.8 °F 71% 30.06 in 10.0 mi West 3.5 mph - N/A   Partly Cloudy
11:58 PM 46.4 °F 44.3 °F 36.1 °F 67% 30.05 in 10.0 mi SW 4.6 mph - N/A   Overcast